Year,Month,Day,Hour,Minute,Value (Times are PST for temperature in C)
2009,05,22,00,00,10.60
2009,05,22,00,01,10.50
2009,05,22,00,02,10.40
2009,05,22,00,03,10.40
2009,05,22,00,04,10.40
2009,05,22,00,05,10.40
2009,05,22,00,06,10.40
2009,05,22,00,07,10.40
2009,05,22,00,08,10.40
2009,05,22,00,09,10.30
2009,05,22,00,10,10.30
2009,05,22,00,11,10.40
2009,05,22,00,12,10.30
2009,05,22,00,13,10.30
2009,05,22,00,14,10.30
2009,05,22,00,15,10.20
2009,05,22,00,16,10.20
2009,05,22,00,17,10.20
2009,05,22,00,18,10.20
2009,05,22,00,19,10.10
2009,05,22,00,20,10.10
2009,05,22,00,21,10.10
2009,05,22,00,22,10.10
2009,05,22,00,23,10.10
2009,05,22,00,24,10.10
2009,05,22,00,25,10.10
2009,05,22,00,26,10.10
2009,05,22,00,27,10.10
2009,05,22,00,28,10.00
2009,05,22,00,29,9.90
2009,05,22,00,30,9.90
2009,05,22,00,31,9.90
2009,05,22,00,32,9.90
2009,05,22,00,33,9.90
2009,05,22,00,34,9.90
2009,05,22,00,35,9.90
2009,05,22,00,36,9.90
2009,05,22,00,37,9.90
2009,05,22,00,38,9.80
2009,05,22,00,39,9.80
2009,05,22,00,40,9.80
2009,05,22,00,41,9.80
2009,05,22,00,42,9.80
2009,05,22,00,43,9.80
2009,05,22,00,44,9.80
2009,05,22,00,45,9.80
2009,05,22,00,46,9.80
2009,05,22,00,47,9.80
2009,05,22,00,48,9.80
2009,05,22,00,49,9.80
2009,05,22,00,50,9.80
2009,05,22,00,51,9.70
2009,05,22,00,52,9.70
2009,05,22,00,53,9.70
2009,05,22,00,54,9.70
2009,05,22,00,55,9.70
2009,05,22,00,56,9.70
2009,05,22,00,57,9.60
2009,05,22,00,58,9.60
2009,05,22,00,59,9.60
2009,05,22,01,00,9.60
2009,05,22,01,01,9.60
2009,05,22,01,02,9.50
2009,05,22,01,03,9.50
2009,05,22,01,04,9.50
2009,05,22,01,05,9.50
2009,05,22,01,06,9.50
2009,05,22,01,07,9.40
2009,05,22,01,08,9.40
2009,05,22,01,09,9.40
2009,05,22,01,10,9.40
2009,05,22,01,11,9.40
2009,05,22,01,12,9.40
2009,05,22,01,13,9.30
2009,05,22,01,14,9.30
2009,05,22,01,15,9.30
2009,05,22,01,16,9.40
2009,05,22,01,17,9.30
2009,05,22,01,18,9.30
2009,05,22,01,19,9.30
2009,05,22,01,20,9.30
2009,05,22,01,21,9.30
2009,05,22,01,22,9.30
2009,05,22,01,23,9.30
2009,05,22,01,24,9.30
2009,05,22,01,25,9.30
2009,05,22,01,26,9.30
2009,05,22,01,27,9.30
2009,05,22,01,28,9.30
2009,05,22,01,29,9.30
2009,05,22,01,30,9.30
2009,05,22,01,31,9.30
2009,05,22,01,32,9.30
2009,05,22,01,33,9.40
2009,05,22,01,34,9.40
2009,05,22,01,35,9.40
2009,05,22,01,36,9.40
2009,05,22,01,37,9.40
2009,05,22,01,38,9.40
2009,05,22,01,39,9.30
2009,05,22,01,40,9.30
2009,05,22,01,41,9.30
2009,05,22,01,42,9.30
2009,05,22,01,43,9.30
2009,05,22,01,44,9.20
2009,05,22,01,45,9.20
2009,05,22,01,46,9.20
2009,05,22,01,47,9.20
2009,05,22,01,48,9.20
2009,05,22,01,49,9.10
2009,05,22,01,50,9.10
2009,05,22,01,51,9.10
2009,05,22,01,52,9.00
2009,05,22,01,53,9.00
2009,05,22,01,54,9.00
2009,05,22,01,55,8.90
2009,05,22,01,56,8.90
2009,05,22,01,57,8.90
2009,05,22,01,58,8.90
2009,05,22,01,59,8.80
2009,05,22,02,00,8.80
2009,05,22,02,01,8.80
2009,05,22,02,02,8.80
2009,05,22,02,03,8.70
2009,05,22,02,04,8.70
2009,05,22,02,05,8.70
2009,05,22,02,06,8.70
2009,05,22,02,07,8.70
2009,05,22,02,08,8.70
2009,05,22,02,09,8.70
2009,05,22,02,10,8.70
2009,05,22,02,11,8.70
2009,05,22,02,12,8.70
2009,05,22,02,13,8.70
2009,05,22,02,14,8.70
2009,05,22,02,15,8.70
2009,05,22,02,16,8.70
2009,05,22,02,17,8.70
2009,05,22,02,18,8.60
2009,05,22,02,19,8.60
2009,05,22,02,20,8.50
2009,05,22,02,21,8.50
2009,05,22,02,22,8.50
2009,05,22,02,23,8.50
2009,05,22,02,24,8.40
2009,05,22,02,25,8.40
2009,05,22,02,26,8.40
2009,05,22,02,27,8.40
2009,05,22,02,28,8.40
2009,05,22,02,29,8.30
2009,05,22,02,30,8.30
2009,05,22,02,31,8.30
2009,05,22,02,32,8.30
2009,05,22,02,33,8.30
2009,05,22,02,34,8.30
2009,05,22,02,35,8.30
2009,05,22,02,36,8.30
2009,05,22,02,37,8.20
2009,05,22,02,38,8.20
2009,05,22,02,39,8.20
2009,05,22,02,40,8.20
2009,05,22,02,41,8.20
2009,05,22,02,42,8.20
2009,05,22,02,43,8.20
2009,05,22,02,44,8.20
2009,05,22,02,45,8.20
2009,05,22,02,46,8.20
2009,05,22,02,47,8.20
2009,05,22,02,48,8.20
2009,05,22,02,49,8.20
2009,05,22,02,50,8.20
2009,05,22,02,51,8.20
2009,05,22,02,52,8.20
2009,05,22,02,53,8.20
2009,05,22,02,54,8.20
2009,05,22,02,55,8.20
2009,05,22,02,56,8.20
2009,05,22,02,57,8.20
2009,05,22,02,58,8.20
2009,05,22,02,59,8.20
2009,05,22,03,00,8.20
2009,05,22,03,01,8.30
2009,05,22,03,02,8.30
2009,05,22,03,03,8.30
2009,05,22,03,04,8.30
2009,05,22,03,05,8.30
2009,05,22,03,06,8.30
2009,05,22,03,07,8.40
2009,05,22,03,08,8.40
2009,05,22,03,09,8.40
2009,05,22,03,10,8.50
2009,05,22,03,11,8.50
2009,05,22,03,12,8.60
2009,05,22,03,13,8.60
2009,05,22,03,14,8.70
2009,05,22,03,15,8.70
2009,05,22,03,16,8.70
2009,05,22,03,17,8.70
2009,05,22,03,18,8.70
2009,05,22,03,19,8.70
2009,05,22,03,20,8.70
2009,05,22,03,21,8.60
2009,05,22,03,22,8.60
2009,05,22,03,23,8.60
2009,05,22,03,24,8.60
2009,05,22,03,25,8.60
2009,05,22,03,26,8.50
2009,05,22,03,27,8.50
2009,05,22,03,28,8.50
2009,05,22,03,29,8.50
2009,05,22,03,30,8.40
2009,05,22,03,31,8.40
2009,05,22,03,32,8.30
2009,05,22,03,33,8.30
2009,05,22,03,34,8.30
2009,05,22,03,35,8.30
2009,05,22,03,36,8.20
2009,05,22,03,37,8.20
2009,05,22,03,38,8.20
2009,05,22,03,39,8.20
2009,05,22,03,40,8.20
2009,05,22,03,41,8.10
2009,05,22,03,42,8.10
2009,05,22,03,43,8.10
2009,05,22,03,44,8.00
2009,05,22,03,45,8.00
2009,05,22,03,46,8.00
2009,05,22,03,47,8.00
2009,05,22,03,48,8.00
2009,05,22,03,49,7.90
2009,05,22,03,50,7.90
2009,05,22,03,51,7.90
2009,05,22,03,52,7.90
2009,05,22,03,53,7.90
2009,05,22,03,54,7.90
2009,05,22,03,55,7.90
2009,05,22,03,56,8.00
2009,05,22,03,57,8.00
2009,05,22,03,58,8.10
2009,05,22,03,59,8.10
2009,05,22,04,00,8.20
2009,05,22,04,01,8.20
2009,05,22,04,02,8.20
2009,05,22,04,03,8.20
2009,05,22,04,04,8.20
2009,05,22,04,05,8.20
2009,05,22,04,06,8.20
2009,05,22,04,07,8.20
2009,05,22,04,08,8.20
2009,05,22,04,09,8.20
2009,05,22,04,10,8.10
2009,05,22,04,11,8.10
2009,05,22,04,12,8.00
2009,05,22,04,13,8.00
2009,05,22,04,14,7.90
2009,05,22,04,15,7.90
2009,05,22,04,16,7.90
2009,05,22,04,17,7.90
2009,05,22,04,18,7.80
2009,05,22,04,19,7.80
2009,05,22,04,20,7.80
2009,05,22,04,21,7.80
2009,05,22,04,22,7.80
2009,05,22,04,23,7.80
2009,05,22,04,24,7.80
2009,05,22,04,25,7.80
2009,05,22,04,26,7.80
2009,05,22,04,27,7.80
2009,05,22,04,28,7.70
2009,05,22,04,29,7.70
2009,05,22,04,30,7.70
2009,05,22,04,31,7.70
2009,05,22,04,32,7.70
2009,05,22,04,33,7.70
2009,05,22,04,34,7.70
2009,05,22,04,35,7.80
2009,05,22,04,36,7.80
2009,05,22,04,37,7.80
2009,05,22,04,38,7.80
2009,05,22,04,39,7.90
2009,05,22,04,40,7.90
2009,05,22,04,41,8.00
2009,05,22,04,42,8.00
2009,05,22,04,43,8.10
2009,05,22,04,44,8.10
2009,05,22,04,45,8.10
2009,05,22,04,46,8.00
2009,05,22,04,47,8.00
2009,05,22,04,48,7.90
2009,05,22,04,49,7.90
2009,05,22,04,50,7.80
2009,05,22,04,51,7.80
2009,05,22,04,52,7.80
2009,05,22,04,53,7.70
2009,05,22,04,54,7.70
2009,05,22,04,55,7.70
2009,05,22,04,56,7.70
2009,05,22,04,57,7.80
2009,05,22,04,58,7.80
2009,05,22,04,59,7.70
2009,05,22,05,00,7.70
2009,05,22,05,01,7.70
2009,05,22,05,02,7.70
2009,05,22,05,03,7.70
2009,05,22,05,04,7.80
2009,05,22,05,05,7.80
2009,05,22,05,06,7.80
2009,05,22,05,07,7.80
2009,05,22,05,08,7.80
2009,05,22,05,09,7.80
2009,05,22,05,10,7.80
2009,05,22,05,11,7.80
2009,05,22,05,12,7.80
2009,05,22,05,13,7.80
2009,05,22,05,14,7.80
2009,05,22,05,15,7.80
2009,05,22,05,16,7.80
2009,05,22,05,17,7.80
2009,05,22,05,18,7.80
2009,05,22,05,19,7.80
2009,05,22,05,20,7.80
2009,05,22,05,21,7.70
2009,05,22,05,22,7.70
2009,05,22,05,23,7.70
2009,05,22,05,24,7.70
2009,05,22,05,25,7.60
2009,05,22,05,26,7.60
2009,05,22,05,27,7.60
2009,05,22,05,28,7.60
2009,05,22,05,29,7.60
2009,05,22,05,30,7.60
2009,05,22,05,31,7.60
2009,05,22,05,32,7.60
2009,05,22,05,33,7.60
2009,05,22,05,34,7.50
2009,05,22,05,35,7.50
2009,05,22,05,36,7.50
2009,05,22,05,37,7.50
2009,05,22,05,38,7.60
2009,05,22,05,39,7.60
2009,05,22,05,40,7.60
2009,05,22,05,41,7.70
2009,05,22,05,42,7.70
2009,05,22,05,43,7.70
2009,05,22,05,44,7.70
2009,05,22,05,45,7.60
2009,05,22,05,46,7.60
2009,05,22,05,47,7.60
2009,05,22,05,48,7.60
2009,05,22,05,49,7.60
2009,05,22,05,50,7.60
2009,05,22,05,51,7.60
2009,05,22,05,52,7.60
2009,05,22,05,53,7.60
2009,05,22,05,54,7.60
2009,05,22,05,55,7.60
2009,05,22,05,56,7.60
2009,05,22,05,57,7.60
2009,05,22,05,58,7.70
2009,05,22,05,59,7.80
2009,05,22,06,00,7.80
2009,05,22,06,01,7.80
2009,05,22,06,02,7.90
2009,05,22,06,03,8.00
2009,05,22,06,04,8.00
2009,05,22,06,05,8.10
2009,05,22,06,06,8.10
2009,05,22,06,07,8.20
2009,05,22,06,08,8.20
2009,05,22,06,09,8.20
2009,05,22,06,10,8.30
2009,05,22,06,11,8.40
2009,05,22,06,12,8.40
2009,05,22,06,13,8.50
2009,05,22,06,14,8.50
2009,05,22,06,15,8.50
2009,05,22,06,16,8.50
2009,05,22,06,17,8.60
2009,05,22,06,18,8.60
2009,05,22,06,19,8.60
2009,05,22,06,20,8.60
2009,05,22,06,21,8.70
2009,05,22,06,22,8.70
2009,05,22,06,23,8.70
2009,05,22,06,24,8.80
2009,05,22,06,25,8.80
2009,05,22,06,26,8.90
2009,05,22,06,27,8.90
2009,05,22,06,28,9.00
2009,05,22,06,29,9.00
2009,05,22,06,30,9.00
2009,05,22,06,31,9.00
2009,05,22,06,32,9.00
2009,05,22,06,33,9.00
2009,05,22,06,34,9.00
2009,05,22,06,35,9.00
2009,05,22,06,36,9.10
2009,05,22,06,37,9.20
2009,05,22,06,38,9.20
2009,05,22,06,39,9.20
2009,05,22,06,40,9.20
2009,05,22,06,41,9.30
2009,05,22,06,42,9.30
2009,05,22,06,43,9.30
2009,05,22,06,44,9.30
2009,05,22,06,45,9.30
2009,05,22,06,46,9.40
2009,05,22,06,47,9.40
2009,05,22,06,48,9.40
2009,05,22,06,49,9.40
2009,05,22,06,50,9.50
2009,05,22,06,51,9.50
2009,05,22,06,52,9.50
2009,05,22,06,53,9.50
2009,05,22,06,54,9.50
2009,05,22,06,55,9.60
2009,05,22,06,56,9.60
2009,05,22,06,57,9.60
2009,05,22,06,58,9.60
2009,05,22,06,59,9.60
2009,05,22,07,00,9.60
2009,05,22,07,01,9.60
2009,05,22,07,02,9.70
2009,05,22,07,03,9.70
2009,05,22,07,04,9.70
2009,05,22,07,05,9.70
2009,05,22,07,06,9.80
2009,05,22,07,07,9.80
2009,05,22,07,08,9.90
2009,05,22,07,09,9.90
2009,05,22,07,10,9.90
2009,05,22,07,11,10.00
2009,05,22,07,12,10.10
2009,05,22,07,13,10.10
2009,05,22,07,14,10.10
2009,05,22,07,15,10.20
2009,05,22,07,16,10.30
2009,05,22,07,17,10.30
2009,05,22,07,18,10.40
2009,05,22,07,19,10.40
2009,05,22,07,20,10.50
2009,05,22,07,21,10.60
2009,05,22,07,22,10.70
2009,05,22,07,23,10.80
2009,05,22,07,24,10.90
2009,05,22,07,25,10.90
2009,05,22,07,26,11.10
2009,05,22,07,27,11.10
2009,05,22,07,28,11.20
2009,05,22,07,29,11.20
2009,05,22,07,30,11.30
2009,05,22,07,31,11.30
2009,05,22,07,32,11.40
2009,05,22,07,33,11.40
2009,05,22,07,34,11.40
2009,05,22,07,35,11.40
2009,05,22,07,36,11.50
2009,05,22,07,37,11.60
2009,05,22,07,38,11.60
2009,05,22,07,39,11.60
2009,05,22,07,40,11.60
2009,05,22,07,41,11.80
2009,05,22,07,42,11.80
2009,05,22,07,43,11.90
2009,05,22,07,44,11.90
2009,05,22,07,45,12.00
2009,05,22,07,46,12.00
2009,05,22,07,47,12.00
2009,05,22,07,48,12.00
2009,05,22,07,49,12.10
2009,05,22,07,50,12.10
2009,05,22,07,51,12.20
2009,05,22,07,52,12.20
2009,05,22,07,53,12.20
2009,05,22,07,54,12.20
2009,05,22,07,55,12.20
2009,05,22,07,56,12.20
2009,05,22,07,57,12.20
2009,05,22,07,58,12.20
2009,05,22,07,59,12.20
2009,05,22,08,00,12.20
2009,05,22,08,01,12.20
2009,05,22,08,02,12.20
2009,05,22,08,03,12.20
2009,05,22,08,04,12.20
2009,05,22,08,05,12.20
2009,05,22,08,06,12.30
2009,05,22,08,07,12.30
2009,05,22,08,08,12.30
2009,05,22,08,09,12.30
2009,05,22,08,10,12.30
2009,05,22,08,11,12.30
2009,05,22,08,12,12.40
2009,05,22,08,13,12.40
2009,05,22,08,14,12.50
2009,05,22,08,15,12.50
2009,05,22,08,16,12.60
2009,05,22,08,17,12.60
2009,05,22,08,18,12.60
2009,05,22,08,19,12.60
2009,05,22,08,20,12.70
2009,05,22,08,21,12.70
2009,05,22,08,22,12.70
2009,05,22,08,23,12.80
2009,05,22,08,24,12.80
2009,05,22,08,25,12.80
2009,05,22,08,26,12.80
2009,05,22,08,27,12.80
2009,05,22,08,28,12.80
2009,05,22,08,29,12.80
2009,05,22,08,30,12.80
2009,05,22,08,31,12.80
2009,05,22,08,32,12.80
2009,05,22,08,33,12.80
2009,05,22,08,34,12.80
2009,05,22,08,35,12.80
2009,05,22,08,36,12.80
2009,05,22,08,37,12.80
2009,05,22,08,38,12.80
2009,05,22,08,39,12.70
2009,05,22,08,40,12.80
2009,05,22,08,41,12.80
2009,05,22,08,42,12.80
2009,05,22,08,43,12.80
2009,05,22,08,44,12.90
2009,05,22,08,45,13.00
2009,05,22,08,46,13.10
2009,05,22,08,47,13.10
2009,05,22,08,48,13.20
2009,05,22,08,49,13.30
2009,05,22,08,50,13.40
2009,05,22,08,51,13.40
2009,05,22,08,52,13.40
2009,05,22,08,53,13.30
2009,05,22,08,54,13.30
2009,05,22,08,55,13.20
2009,05,22,08,56,13.20
2009,05,22,08,57,13.10
2009,05,22,08,58,13.20
2009,05,22,08,59,13.20
2009,05,22,09,00,13.30
2009,05,22,09,01,13.30
2009,05,22,09,02,13.20
2009,05,22,09,03,13.10
2009,05,22,09,04,13.00
2009,05,22,09,05,13.00
2009,05,22,09,06,13.00
2009,05,22,09,07,12.90
2009,05,22,09,08,12.90
2009,05,22,09,09,12.80
2009,05,22,09,10,12.80
2009,05,22,09,11,12.80
2009,05,22,09,12,12.90
2009,05,22,09,13,12.90
2009,05,22,09,14,13.00
2009,05,22,09,15,13.00
2009,05,22,09,16,13.00
2009,05,22,09,17,13.00
2009,05,22,09,18,12.90
2009,05,22,09,19,12.90
2009,05,22,09,20,12.90
2009,05,22,09,21,13.00
2009,05,22,09,22,13.00
2009,05,22,09,23,13.10
2009,05,22,09,24,13.10
2009,05,22,09,25,13.20
2009,05,22,09,26,13.30
2009,05,22,09,27,13.30
2009,05,22,09,28,13.30
2009,05,22,09,29,13.30
2009,05,22,09,30,13.30
2009,05,22,09,31,13.30
2009,05,22,09,32,13.30
2009,05,22,09,33,13.30
2009,05,22,09,34,13.30
2009,05,22,09,35,13.30
2009,05,22,09,36,13.40
2009,05,22,09,37,13.40
2009,05,22,09,38,13.50
2009,05,22,09,39,13.50
2009,05,22,09,40,13.40
2009,05,22,09,41,13.40
2009,05,22,09,42,13.40
2009,05,22,09,43,13.40
2009,05,22,09,44,13.30
2009,05,22,09,45,13.40
2009,05,22,09,46,13.40
2009,05,22,09,47,13.40
2009,05,22,09,48,13.40
2009,05,22,09,49,13.40
2009,05,22,09,50,13.40
2009,05,22,09,51,13.40
2009,05,22,09,52,13.40
2009,05,22,09,53,13.30
2009,05,22,09,54,13.40
2009,05,22,09,55,13.50
2009,05,22,09,56,13.50
2009,05,22,09,57,13.60
2009,05,22,09,58,13.70
2009,05,22,09,59,13.70
2009,05,22,10,00,13.70
2009,05,22,10,01,13.70
2009,05,22,10,02,13.70
2009,05,22,10,03,13.70
2009,05,22,10,04,13.60
2009,05,22,10,05,13.60
2009,05,22,10,06,13.50
2009,05,22,10,07,13.50
2009,05,22,10,08,13.40
2009,05,22,10,09,13.50
2009,05,22,10,10,13.60
2009,05,22,10,11,13.70
2009,05,22,10,12,13.80
2009,05,22,10,13,13.90
2009,05,22,10,14,14.00
2009,05,22,10,15,14.00
2009,05,22,10,16,14.00
2009,05,22,10,17,13.90
2009,05,22,10,18,14.00
2009,05,22,10,19,14.00
2009,05,22,10,20,14.00
2009,05,22,10,21,14.00
2009,05,22,10,22,14.00
2009,05,22,10,23,14.10
2009,05,22,10,24,14.20
2009,05,22,10,25,14.30
2009,05,22,10,26,14.50
2009,05,22,10,27,14.50
2009,05,22,10,28,14.50
2009,05,22,10,29,14.50
2009,05,22,10,30,14.30
2009,05,22,10,31,14.30
2009,05,22,10,32,14.30
2009,05,22,10,33,14.30
2009,05,22,10,34,14.40
2009,05,22,10,35,14.40
2009,05,22,10,36,14.40
2009,05,22,10,37,14.40
2009,05,22,10,38,14.40
2009,05,22,10,39,14.30
2009,05,22,10,40,14.30
2009,05,22,10,41,14.30
2009,05,22,10,42,14.30
2009,05,22,10,43,14.30
2009,05,22,10,44,14.20
2009,05,22,10,45,14.20
2009,05,22,10,46,14.20
2009,05,22,10,47,14.20
2009,05,22,10,48,14.30
2009,05,22,10,49,14.30
2009,05,22,10,50,14.40
2009,05,22,10,51,14.40
2009,05,22,10,52,14.30
2009,05,22,10,53,14.40
2009,05,22,10,54,14.50
2009,05,22,10,55,14.50
2009,05,22,10,56,14.50
2009,05,22,10,57,14.50
2009,05,22,10,58,14.60
2009,05,22,10,59,14.60
2009,05,22,11,00,14.60
2009,05,22,11,01,14.60
2009,05,22,11,02,14.60
2009,05,22,11,03,14.60
2009,05,22,11,04,14.60
2009,05,22,11,05,14.60
2009,05,22,11,06,14.70
2009,05,22,11,07,14.80
2009,05,22,11,08,14.80
2009,05,22,11,09,14.80
2009,05,22,11,10,14.80
2009,05,22,11,11,14.70
2009,05,22,11,12,14.70
2009,05,22,11,13,14.70
2009,05,22,11,14,14.90
2009,05,22,11,15,15.00
2009,05,22,11,16,15.10
2009,05,22,11,17,15.20
2009,05,22,11,18,15.30
2009,05,22,11,19,15.30
2009,05,22,11,20,15.30
2009,05,22,11,21,15.30
2009,05,22,11,22,15.30
2009,05,22,11,23,15.30
2009,05,22,11,24,15.30
2009,05,22,11,25,15.40
2009,05,22,11,26,15.50
2009,05,22,11,27,15.60
2009,05,22,11,28,15.60
2009,05,22,11,29,15.70
2009,05,22,11,30,15.70
2009,05,22,11,31,15.70
2009,05,22,11,32,15.70
2009,05,22,11,33,15.70
2009,05,22,11,34,15.70
2009,05,22,11,35,15.60
2009,05,22,11,36,15.50
2009,05,22,11,37,15.30
2009,05,22,11,38,15.30
2009,05,22,11,39,15.30
2009,05,22,11,40,15.30
2009,05,22,11,41,15.30
2009,05,22,11,42,15.30
2009,05,22,11,43,15.10
2009,05,22,11,44,15.00
2009,05,22,11,45,15.00
2009,05,22,11,46,15.10
2009,05,22,11,47,15.20
2009,05,22,11,48,15.20
2009,05,22,11,49,15.10
2009,05,22,11,50,15.00
2009,05,22,11,51,14.90
2009,05,22,11,52,14.90
2009,05,22,11,53,15.00
2009,05,22,11,54,15.10
2009,05,22,11,55,15.20
2009,05,22,11,56,15.30
2009,05,22,11,57,15.30
2009,05,22,11,58,15.40
2009,05,22,11,59,15.50
2009,05,22,12,00,15.50
2009,05,22,12,01,15.60
2009,05,22,12,02,15.60
2009,05,22,12,03,15.60
2009,05,22,12,04,15.60
2009,05,22,12,05,15.70
2009,05,22,12,06,15.80
2009,05,22,12,07,15.80
2009,05,22,12,08,15.80
2009,05,22,12,09,15.80
2009,05,22,12,10,15.80
2009,05,22,12,11,15.80
2009,05,22,12,12,15.70
2009,05,22,12,13,15.60
2009,05,22,12,14,15.60
2009,05,22,12,15,15.60
2009,05,22,12,16,15.60
2009,05,22,12,17,15.60
2009,05,22,12,18,15.70
2009,05,22,12,19,15.80
2009,05,22,12,20,15.90
2009,05,22,12,21,15.90
2009,05,22,12,22,15.80
2009,05,22,12,23,15.80
2009,05,22,12,24,15.80
2009,05,22,12,25,15.80
2009,05,22,12,26,15.80
2009,05,22,12,27,15.80
2009,05,22,12,28,15.80
2009,05,22,12,29,15.80
2009,05,22,12,30,15.80
2009,05,22,12,31,15.80
2009,05,22,12,32,15.90
2009,05,22,12,33,16.10
2009,05,22,12,34,16.20
2009,05,22,12,35,16.20
2009,05,22,12,36,16.20
2009,05,22,12,37,16.10
2009,05,22,12,38,16.10
2009,05,22,12,39,16.10
2009,05,22,12,40,16.10
2009,05,22,12,41,16.10
2009,05,22,12,42,16.10
2009,05,22,12,43,16.00
2009,05,22,12,44,15.90
2009,05,22,12,45,15.80
2009,05,22,12,46,15.80
2009,05,22,12,47,15.80
2009,05,22,12,48,15.80
2009,05,22,12,49,16.00
2009,05,22,12,50,16.10
2009,05,22,12,51,16.30
2009,05,22,12,52,16.30
2009,05,22,12,53,16.30
2009,05,22,12,54,16.30
2009,05,22,12,55,16.30
2009,05,22,12,56,16.30
2009,05,22,12,57,16.40
2009,05,22,12,58,16.40
2009,05,22,12,59,16.40
2009,05,22,13,00,16.40
2009,05,22,13,01,16.40
2009,05,22,13,02,16.40
2009,05,22,13,03,16.40
2009,05,22,13,04,16.40
2009,05,22,13,05,16.50
2009,05,22,13,06,16.40
2009,05,22,13,07,16.40
2009,05,22,13,08,16.50
2009,05,22,13,09,16.60
2009,05,22,13,10,16.60
2009,05,22,13,11,16.70
2009,05,22,13,12,16.80
2009,05,22,13,13,16.90
2009,05,22,13,14,16.90
2009,05,22,13,15,16.90
2009,05,22,13,16,16.90
2009,05,22,13,17,16.90
2009,05,22,13,18,17.10
2009,05,22,13,19,17.20
2009,05,22,13,20,17.20
2009,05,22,13,21,17.20
2009,05,22,13,22,17.20
2009,05,22,13,23,17.30
2009,05,22,13,24,17.30
2009,05,22,13,25,17.30
2009,05,22,13,26,17.30
2009,05,22,13,27,17.30
2009,05,22,13,28,17.20
2009,05,22,13,29,17.30
2009,05,22,13,30,17.30
2009,05,22,13,31,17.30
2009,05,22,13,32,17.40
2009,05,22,13,33,17.40
2009,05,22,13,34,17.40
2009,05,22,13,35,17.60
2009,05,22,13,36,17.60
2009,05,22,13,37,17.70
2009,05,22,13,38,17.80
2009,05,22,13,39,17.80
2009,05,22,13,40,17.70
2009,05,22,13,41,17.70
2009,05,22,13,42,17.60
2009,05,22,13,43,17.60
2009,05,22,13,44,17.50
2009,05,22,13,45,17.60
2009,05,22,13,46,17.60
2009,05,22,13,47,17.50
2009,05,22,13,48,17.60
2009,05,22,13,49,17.80
2009,05,22,13,50,17.90
2009,05,22,13,51,18.00
2009,05,22,13,52,18.10
2009,05,22,13,53,18.10
2009,05,22,13,54,18.00
2009,05,22,13,55,17.90
2009,05,22,13,56,17.90
2009,05,22,13,57,17.80
2009,05,22,13,58,17.80
2009,05,22,13,59,17.90
2009,05,22,14,00,18.10
2009,05,22,14,01,18.10
2009,05,22,14,02,18.10
2009,05,22,14,03,18.20
2009,05,22,14,04,18.20
2009,05,22,14,05,18.20
2009,05,22,14,06,18.10
2009,05,22,14,07,17.90
2009,05,22,14,08,17.90
2009,05,22,14,09,17.90
2009,05,22,14,10,17.80
2009,05,22,14,11,17.90
2009,05,22,14,12,17.90
2009,05,22,14,13,17.90
2009,05,22,14,14,17.90
2009,05,22,14,15,18.10
2009,05,22,14,16,18.20
2009,05,22,14,17,18.20
2009,05,22,14,18,18.00
2009,05,22,14,19,17.90
2009,05,22,14,20,17.90
2009,05,22,14,21,17.90
2009,05,22,14,22,17.90
2009,05,22,14,23,17.90
2009,05,22,14,24,18.00
2009,05,22,14,25,18.20
2009,05,22,14,26,18.20
2009,05,22,14,27,18.20
2009,05,22,14,28,18.10
2009,05,22,14,29,18.10
2009,05,22,14,30,18.00
2009,05,22,14,31,17.90
2009,05,22,14,32,17.90
2009,05,22,14,33,17.90
2009,05,22,14,34,17.90
2009,05,22,14,35,18.10
2009,05,22,14,36,18.20
2009,05,22,14,37,18.20
2009,05,22,14,38,18.20
2009,05,22,14,39,18.30
2009,05,22,14,40,18.20
2009,05,22,14,41,18.10
2009,05,22,14,42,18.00
2009,05,22,14,43,18.10
2009,05,22,14,44,18.20
2009,05,22,14,45,18.20
2009,05,22,14,46,18.20
2009,05,22,14,47,18.30
2009,05,22,14,48,18.30
2009,05,22,14,49,18.20
2009,05,22,14,50,18.30
2009,05,22,14,51,18.30
2009,05,22,14,52,18.40
2009,05,22,14,53,18.40
2009,05,22,14,54,18.40
2009,05,22,14,55,18.30
2009,05,22,14,56,18.30
2009,05,22,14,57,18.30
2009,05,22,14,58,18.40
2009,05,22,14,59,18.50
2009,05,22,15,00,18.60
2009,05,22,15,01,18.60
2009,05,22,15,02,18.60
2009,05,22,15,03,18.70
2009,05,22,15,04,18.70
2009,05,22,15,05,18.70
2009,05,22,15,06,18.90
2009,05,22,15,07,18.90
2009,05,22,15,08,18.90
2009,05,22,15,09,18.90
2009,05,22,15,10,18.90
2009,05,22,15,11,18.90
2009,05,22,15,12,18.90
2009,05,22,15,13,18.80
2009,05,22,15,14,18.80
2009,05,22,15,15,18.90
2009,05,22,15,16,18.90
2009,05,22,15,17,18.90
2009,05,22,15,18,18.90
2009,05,22,15,19,18.90
2009,05,22,15,20,18.90
2009,05,22,15,21,18.90
2009,05,22,15,22,18.90
2009,05,22,15,23,18.90
2009,05,22,15,24,18.80
2009,05,22,15,25,18.70
2009,05,22,15,26,18.70
2009,05,22,15,27,18.80
2009,05,22,15,28,18.90
2009,05,22,15,29,19.00
2009,05,22,15,30,19.10
2009,05,22,15,31,19.10
2009,05,22,15,32,19.10
2009,05,22,15,33,19.10
2009,05,22,15,34,19.20
2009,05,22,15,35,19.30
2009,05,22,15,36,19.20
2009,05,22,15,37,19.10
2009,05,22,15,38,18.90
2009,05,22,15,39,18.90
2009,05,22,15,40,19.00
2009,05,22,15,41,19.20
2009,05,22,15,42,19.30
2009,05,22,15,43,19.40
2009,05,22,15,44,19.40
2009,05,22,15,45,19.30
2009,05,22,15,46,19.10
2009,05,22,15,47,19.00
2009,05,22,15,48,18.90
2009,05,22,15,49,18.90
2009,05,22,15,50,19.00
2009,05,22,15,51,19.10
2009,05,22,15,52,19.10
2009,05,22,15,53,19.10
2009,05,22,15,54,19.10
2009,05,22,15,55,19.10
2009,05,22,15,56,19.10
2009,05,22,15,57,19.10
2009,05,22,15,58,19.10
2009,05,22,15,59,19.10
2009,05,22,16,00,19.20
2009,05,22,16,01,19.40
2009,05,22,16,02,19.40
2009,05,22,16,03,19.50
2009,05,22,16,04,19.60
2009,05,22,16,05,19.70
2009,05,22,16,06,19.80
2009,05,22,16,07,19.80
2009,05,22,16,08,19.80
2009,05,22,16,09,19.90
2009,05,22,16,10,19.80
2009,05,22,16,11,19.70
2009,05,22,16,12,19.60
2009,05,22,16,13,19.40
2009,05,22,16,14,19.20
2009,05,22,16,15,19.10
2009,05,22,16,16,19.10
2009,05,22,16,17,19.10
2009,05,22,16,18,19.20
2009,05,22,16,19,19.20
2009,05,22,16,20,19.10
2009,05,22,16,21,19.10
2009,05,22,16,22,19.10
2009,05,22,16,23,19.20
2009,05,22,16,24,19.30
2009,05,22,16,25,19.30
2009,05,22,16,26,19.40
2009,05,22,16,27,19.30
2009,05,22,16,28,19.30
2009,05,22,16,29,19.20
2009,05,22,16,30,19.20
2009,05,22,16,31,19.20
2009,05,22,16,32,19.20
2009,05,22,16,33,19.20
2009,05,22,16,34,19.20
2009,05,22,16,35,19.20
2009,05,22,16,36,19.30
2009,05,22,16,37,19.20
2009,05,22,16,38,19.10
2009,05,22,16,39,19.10
2009,05,22,16,40,19.10
2009,05,22,16,41,19.10
2009,05,22,16,42,19.10
2009,05,22,16,43,19.10
2009,05,22,16,44,19.20
2009,05,22,16,45,19.30
2009,05,22,16,46,19.20
2009,05,22,16,47,19.10
2009,05,22,16,48,19.10
2009,05,22,16,49,19.10
2009,05,22,16,50,19.10
2009,05,22,16,51,19.20
2009,05,22,16,52,19.20
2009,05,22,16,53,19.10
2009,05,22,16,54,19.10
2009,05,22,16,55,19.10
2009,05,22,16,56,19.10
2009,05,22,16,57,19.10
2009,05,22,16,58,19.10
2009,05,22,16,59,19.10
2009,05,22,17,00,19.00
2009,05,22,17,01,18.90
2009,05,22,17,02,18.90
2009,05,22,17,03,18.90
2009,05,22,17,04,18.90
2009,05,22,17,05,18.90
2009,05,22,17,06,18.90
2009,05,22,17,07,18.90
2009,05,22,17,08,19.10
2009,05,22,17,09,19.10
2009,05,22,17,10,19.30
2009,05,22,17,11,19.40
2009,05,22,17,12,19.50
2009,05,22,17,13,19.60
2009,05,22,17,14,19.50
2009,05,22,17,15,19.40
2009,05,22,17,16,19.40
2009,05,22,17,17,19.40
2009,05,22,17,18,19.30
2009,05,22,17,19,19.30
2009,05,22,17,20,19.30
2009,05,22,17,21,19.30
2009,05,22,17,22,19.30
2009,05,22,17,23,19.30
2009,05,22,17,24,19.30
2009,05,22,17,25,19.30
2009,05,22,17,26,19.40
2009,05,22,17,27,19.50
2009,05,22,17,28,19.60
2009,05,22,17,29,19.60
2009,05,22,17,30,19.70
2009,05,22,17,31,19.60
2009,05,22,17,32,19.60
2009,05,22,17,33,19.50
2009,05,22,17,34,19.40
2009,05,22,17,35,19.40
2009,05,22,17,36,19.30